Wind_Speed
24 24 25 25 25 26 26 27 27 27 28 28 28 29 29 29 30 30 31 31 31 32 32 32 32 33 33 34 34 34 34 35 35 36 36 37 38 39 40 41 42 42 43
25 25 25 26 26 27 27 27 27 28 29 29 29 30 30 30 31 31 32 32 32 33 33 33 34 34 35 35 36 36 36 36 37 37 37 38 39 40 41 42 43 44 44
25 25 26 26 27 27 27 27 27 28 29 29 30 30 30 31 32 32 33 33 33 34 34 35 35 36 37 37 37 37 38 39 39 40 40 40 40 40 41 42 44 45 46
25 25 25 26 26 27 27 27 27 28 29 30 30 30 31 31 32 33 34 34 34 35 36 37 37 38 38 38 39 39 40 41 41 42 42 43 44 43 42 43 45 46 48
25 25 25 25 26 27 27 27 28 28 29 30 30 31 32 32 33 34 34 35 36 36 37 38 39 39 39 40 40 41 42 42 43 44 44 45 46 46 46 46 46 47 49
25 25 25 25 26 27 27 28 28 29 30 31 31 32 33 33 34 34 35 36 37 38 39 39 40 40 41 41 42 42 43 44 45 46 46 47 47 48 49 49 49 49 50
25 25 26 26 27 28 28 29 29 30 31 31 32 33 34 34 35 36 36 37 38 39 40 40 41 41 42 42 43 44 45 46 46 47 48 48 49 50 51 52 52 53 53
26 26 26 27 28 28 29 30 30 31 32 32 33 34 34 35 36 37 37 38 39 39 40 41 41 42 42 43 44 45 46 47 48 48 49 50 51 53 54 55 57 57 55
26 26 27 27 28 29 30 31 31 32 33 34 34 35 36 36 37 38 38 39 39 40 41 42 42 43 44 45 46 47 48 48 49 50 52 53 54 55 57 58 59 59 58
26 27 28 28 29 30 31 31 32 33 34 34 35 36 36 37 38 38 38 39 40 41 42 42 44 45 46 46 47 48 49 50 51 52 54 55 57 57 58 59 59 61 61
26 27 28 29 30 30 31 32 33 33 34 35 35 36 37 37 38 38 39 40 41 42 43 44 45 45 46 47 48 50 51 52 53 54 56 57 58 58 59 60 61 62 64
27 28 29 30 30 31 32 32 33 34 34 35 36 36 37 38 38 39 40 41 42 43 44 45 46 46 47 49 50 51 52 54 55 56 57 58 58 59 60 61 62 64 66
28 29 30 31 31 32 32 33 34 34 35 35 35 36 37 38 39 40 41 42 43 44 45 46 46 47 49 50 52 53 54 55 56 57 58 58 59 60 62 63 65 66 68
29 30 31 31 32 32 33 34 34 34 35 36 36 37 38 39 40 41 41 42 43 44 45 46 47 49 50 52 53 54 55 55 56 57 58 60 61 62 63 65 66 68 70
30 31 32 32 33 33 34 34 35 35 36 37 37 37 38 39 40 41 42 42 44 45 46 47 49 50 51 53 54 55 55 56 57 59 60 61 62 64 65 67 68 70 71
32 32 32 33 34 34 35 35 36 37 37 37 37 38 39 39 40 41 43 44 45 46 47 48 49 50 52 54 55 55 56 57 59 60 61 62 63 65 66 68 69 71 72
32 32 33 34 35 35 36 36 37 37 37 37 38 39 40 40 41 42 43 45 46 47 48 49 50 52 53 55 55 56 57 59 60 61 62 63 64 66 67 68 69 71 72
32 33 33 34 35 35 36 36 37 37 38 38 39 40 41 42 42 43 44 46 47 49 50 51 52 53 54 55 56 57 58 60 61 62 63 63 65 66 68 69 69 70 71
33 33 34 34 35 35 36 37 37 38 39 40 40 41 42 43 44 45 46 47 48 50 51 53 54 54 55 56 57 58 60 61 62 62 63 64 65 67 68 69 70 70 70
34 34 35 35 35 36 36 37 38 38 39 40 41 42 43 44 45 46 47 49 50 51 52 54 54 55 56 57 58 59 61 61 61 62 63 65 66 67 68 68 69 69 70
34 35 36 36 36 37 37 38 38 39 40 41 42 43 44 45 46 47 48 49 51 52 53 54 55 56 57 58 59 60 62 62 62 63 64 65 66 66 67 68 69 70 69
36 36 36 37 37 38 38 39 40 41 42 42 43 44 45 46 47 48 49 51 52 54 54 55 55 56 57 58 59 61 63 63 63 64 64 64 65 66 67 69 69 68 66
36 36 37 37 38 39 40 41 42 42 43 44 45 45 46 47 48 50 51 52 54 55 55 55 55 56 57 59 61 62 63 63 64 64 64 64 65 66 67 67 66 64 62
36 37 37 38 40 41 41 42 43 44 44 45 46 46 47 49 50 52 53 54 56 56 56 56 56 57 59 61 62 63 63 64 64 64 64 65 65 67 66 65 63 61 59
37 38 39 40 41 42 43 44 44 45 46 47 48 48 49 50 52 53 54 56 57 57 57 57 58 59 61 62 64 64 64 64 64 64 64 65 65 65 63 61 60 58 57
39 40 40 41 42 43 44 45 46 47 47 48 49 50 51 52 53 54 55 57 58 58 59 60 61 62 63 64 64 65 65 65 65 65 65 65 64 63 61 59 58 56 55
Wind_Direction
280 281 282 283 285 287 288 289 289 289 289 289 290 290 290 290 290 290 291 292 292 292 293 293 293 294 294 294 294 294 294 294 294 294 293 294 294 294 294 294 293 293 292
280 280 281 283 285 286 288 288 288 288 288 288 288 289 290 290 289 290 290 291 291 291 292 292 293 293 293 293 293 293 293 294 294 294 294 293 294 294 295 294 294 293 293
278 280 281 282 284 286 287 288 288 287 287 288 289 289 290 290 289 289 290 291 291 291 291 292 292 292 293 293 293 293 293 294 294 295 294 293 292 292 293 293 293 293 293
280 280 281 282 284 286 287 288 288 287 287 288 289 289 289 289 289 289 290 290 291 291 291 291 292 292 292 293 293 293 294 294 294 295 295 295 294 293 292 292 292 292 292
281 282 282 283 285 287 288 288 288 288 288 288 288 289 289 289 289 289 289 289 289 290 290 291 291 291 292 292 293 293 294 294 294 295 295 296 295 295 294 293 293 293 293
282 282 283 285 286 286 287 288 288 289 289 289 289 288 289 289 289 289 289 289 289 289 290 290 290 291 292 292 293 293 294 294 295 295 296 296 296 295 294 294 293 293 294
281 283 284 285 286 286 287 288 289 289 289 289 289 289 289 288 289 288 289 289 289 289 289 289 290 291 291 292 293 294 294 295 295 296 296 296 296 296 296 295 294 294 295
281 283 284 285 286 287 288 289 289 289 289 289 289 289 288 288 288 288 288 289 289 288 288 289 290 290 291 292 293 294 295 295 296 296 296 297 297 297 296 296 296 296 295
282 283 285 286 288 289 289 290 290 290 290 290 290 289 288 288 288 288 288 289 289 288 289 289 290 290 291 292 293 294 294 295 296 296 297 297 297 297 297 297 297 297 296
283 284 286 288 289 290 290 291 292 291 291 291 291 290 289 289 289 288 289 289 289 289 289 289 290 291 292 292 293 294 294 295 295 296 297 297 297 297 297 297 297 298 298
282 284 286 288 289 290 291 292 292 292 292 291 291 291 290 289 289 289 289 290 289 289 290 290 291 291 291 292 293 293 294 295 296 297 298 298 298 297 297 298 298 298 298
283 285 286 288 290 291 291 292 292 292 292 292 292 291 291 290 290 290 290 290 291 291 291 291 292 292 292 293 294 295 295 296 297 298 298 298 297 297 298 298 298 299 299
284 285 287 289 291 291 292 292 293 293 293 293 292 292 291 291 291 291 291 291 292 292 292 292 293 293 294 295 295 296 296 297 297 298 298 298 298 298 299 299 299 299 299
285 286 288 290 291 292 293 293 293 293 293 293 293 292 292 292 292 292 292 292 292 293 293 293 294 294 295 295 296 296 297 297 298 298 298 299 299 299 299 299 300 300 300
285 286 289 291 292 292 293 294 294 294 294 294 294 294 293 293 293 293 293 293 293 294 294 294 295 295 296 296 297 297 297 298 298 299 299 299 299 299 299 300 300 300 301
284 287 290 291 291 292 293 294 294 295 295 294 294 295 295 295 295 295 295 295 295 295 295 296 296 296 297 297 297 297 298 299 299 300 299 299 299 300 300 301 301 302 302
285 287 289 290 291 292 294 295 295 295 295 296 295 296 296 296 296 296 296 296 296 296 297 297 297 297 297 297 297 298 299 300 301 301 300 300 300 301 301 301 302 302 303
285 287 289 291 292 293 294 295 296 296 296 296 296 296 297 297 298 298 297 297 297 297 297 298 298 298 298 298 298 299 300 302 302 301 301 301 302 302 302 302 303 303 304
286 288 290 291 292 293 294 295 296 296 296 297 297 297 298 298 298 298 298 298 298 299 299 299 299 299 299 299 300 300 301 302 302 302 302 303 303 303 302 303 303 304 304
285 287 289 290 291 293 294 295 295 296 297 297 297 298 298 299 299 299 299 299 299 300 300 300 300 300 300 300 301 301 302 303 303 303 303 303 303 303 303 304 305 305 305
286 287 288 289 290 292 294 295 296 296 297 297 297 298 298 299 299 299 300 300 300 301 301 301 300 300 301 301 302 303 304 304 304 304 304 304 304 304 304 305 305 306 306
286 287 287 289 290 291 293 295 297 297 297 298 298 299 299 299 300 300 301 301 302 302 302 302 301 301 302 302 303 304 305 305 305 305 305 305 305 305 305 306 306 306 306
286 287 288 288 290 292 293 295 296 297 298 298 299 299 300 300 301 301 302 303 303 303 303 302 302 302 303 304 304 305 305 305 305 306 306 306 306 306 306 307 307 306 306
286 287 288 290 291 293 294 295 296 297 298 299 299 300 300 301 302 303 303 304 304 304 303 303 303 303 304 304 305 305 305 306 306 306 306 306 307 307 307 307 307 306 306
285 287 288 290 292 293 294 295 296 297 298 299 299 300 300 301 302 303 304 304 304 304 304 304 304 304 305 305 305 306 306 306 306 306 306 307 307 307 307 306 306 306 306
286 287 288 290 292 293 294 295 296 298 299 299 299 300 301 302 303 303 304 305 305 304 304 304 305 305 306 306 306 307 307 307 307 307 307 307 308 307 306 306 305 305 305
Height
5826 5825 5824 5822 5821 5820 5819 5817 5815 5813 5811 5809 5807 5805 5803 5801 5799 5796 5794 5792 5789 5787 5784 5781 5779 5776 5773 5771 5768 5765 5762 5759 5756 5754 5750 5747 5743 5740 5736 5732 5728 5725 5721
5820 5819 5817 5816 5815 5813 5812 5810 5808 5806 5805 5803 5801 5799 5797 5794 5792 5790 5787 5784 5782 5779 5777 5774 5771 5768 5766 5763 5760 5757 5754 5751 5748 5745 5742 5739 5736 5731 5727 5723 5718 5715 5711
5814 5812 5811 5809 5808 5807 5805 5803 5801 5799 5797 5796 5794 5792 5789 5787 5785 5782 5780 5777 5774 5772 5769 5766 5763 5761 5758 5755 5752 5748 5745 5742 5739 5735 5732 5729 5726 5723 5719 5714 5709 5705 5701
5807 5805 5804 5802 5801 5800 5798 5796 5794 5792 5790 5788 5786 5784 5782 5780 5777 5775 5772 5769 5767 5764 5761 5758 5755 5752 5749 5746 5743 5740 5736 5733 5729 5726 5722 5718 5714 5711 5709 5705 5700 5695 5690
5799 5798 5797 5796 5794 5793 5791 5789 5787 5785 5783 5781 5779 5777 5775 5772 5770 5767 5764 5761 5759 5756 5752 5749 5746 5743 5740 5737 5734 5730 5727 5723 5719 5715 5711 5707 5703 5699 5695 5693 5689 5684 5679
5792 5791 5790 5789 5787 5786 5784 5782 5780 5778 5776 5773 5771 5769 5767 5764 5762 5759 5756 5753 5750 5747 5744 5740 5737 5734 5731 5727 5724 5720 5717 5713 5709 5704 5700 5696 5692 5687 5683 5679 5676 5672 5667
5785 5784 5783 5782 5780 5778 5777 5775 5773 5770 5768 5766 5763 5761 5758 5756 5753 5751 5748 5744 5741 5738 5735 5731 5728 5725 5721 5718 5714 5710 5706 5702 5698 5693 5689 5684 5679 5674 5670 5665 5662 5658 5654
5778 5777 5776 5774 5772 5771 5769 5767 5765 5763 5760 5758 5755 5753 5750 5747 5745 5742 5738 5735 5732 5729 5725 5722 5718 5715 5711 5707 5703 5699 5695 5691 5686 5682 5677 5672 5666 5661 5656 5651 5646 5643 5640
5771 5770 5768 5767 5765 5763 5761 5759 5757 5754 5752 5749 5747 5744 5741 5738 5736 5732 5729 5726 5723 5719 5715 5712 5708 5704 5701 5697 5692 5688 5684 5679 5675 5670 5664 5659 5653 5648 5642 5636 5631 5626 5622
5763 5762 5761 5759 5757 5755 5753 5750 5748 5746 5743 5740 5738 5735 5732 5729 5726 5723 5720 5716 5713 5709 5705 5702 5698 5694 5690 5686 5681 5677 5672 5667 5662 5657 5651 5646 5640 5634 5628 5621 5616 5610 5605
5756 5754 5753 5751 5749 5747 5744 5742 5739 5737 5734 5731 5728 5725 5722 5719 5716 5713 5710 5706 5703 5699 5695 5691 5687 5683 5679 5674 5670 5665 5660 5655 5650 5644 5638 5632 5625 5619 5613 5607 5601 5594 5588
5748 5746 5744 5742 5740 5738 5736 5733 5730 5728 5725 5722 5719 5716 5713 5709 5706 5703 5700 5696 5692 5688 5684 5680 5676 5672 5668 5663 5658 5653 5647 5642 5636 5630 5624 5617 5611 5605 5598 5592 5585 5579 5571
5739 5737 5736 5734 5731 5729 5727 5724 5721 5718 5715 5712 5709 5706 5703 5700 5696 5693 5689 5685 5682 5678 5673 5669 5665 5660 5655 5650 5645 5640 5634 5628 5622 5616 5610 5603 5597 5590 5583 5576 5569 5562 5554
5730 5729 5727 5725 5723 5720 5718 5715 5712 5709 5706 5703 5700 5696 5693 5690 5686 5682 5679 5675 5670 5666 5662 5657 5653 5648 5643 5638 5632 5627 5621 5615 5608 5602 5595 5588 5582 5575 5568 5560 5553 5545 5537
5721 5720 5718 5716 5714 5711 5708 5705 5702 5699 5696 5693 5690 5686 5683 5679 5675 5672 5668 5663 5659 5655 5650 5645 5641 5635 5630 5625 5619 5613 5607 5601 5595 5588 5581 5573 5566 5559 5551 5543 5536 5527 5519
5712 5710 5709 5707 5704 5701 5699 5696 5693 5690 5686 5683 5680 5676 5672 5669 5665 5661 5657 5652 5648 5643 5638 5633 5628 5623 5617 5611 5605 5599 5593 5587 5580 5573 5566 5558 5551 5543 5535 5526 5517 5508 5499
5703 5701 5699 5697 5694 5692 5689 5686 5683 5680 5676 5673 5669 5666 5662 5658 5654 5650 5645 5641 5636 5631 5626 5620 5615 5609 5603 5597 5591 5585 5578 5572 5565 5558 5550 5543 5535 5526 5518 5510 5501 5491 5480
5694 5692 5690 5687 5685 5682 5679 5676 5673 5669 5666 5662 5659 5655 5651 5647 5642 5638 5633 5629 5624 5619 5613 5607 5602 5596 5589 5583 5576 5570 5564 5557 5550 5542 5534 5526 5518 5509 5500 5493 5484 5475 5464
5684 5682 5680 5677 5675 5672 5669 5666 5662 5659 5655 5652 5648 5644 5639 5635 5631 5626 5621 5616 5611 5606 5600 5594 5588 5582 5575 5568 5562 5555 5549 5542 5534 5526 5518 5509 5501 5493 5483 5474 5467 5458 5448
5674 5672 5670 5667 5665 5662 5659 5655 5652 5649 5645 5641 5637 5632 5628 5624 5619 5614 5609 5604 5598 5593 5587 5581 5574 5567 5561 5554 5547 5540 5534 5527 5519 5511 5502 5493 5484 5475 5465 5456 5447 5439 5430
5664 5662 5660 5657 5654 5651 5648 5645 5642 5638 5634 5629 5625 5621 5616 5612 5607 5602 5597 5591 5585 5580 5573 5567 5560 5553 5547 5539 5532 5524 5517 5510 5503 5495 5486 5477 5467 5458 5448 5438 5429 5420 5411
5653 5651 5649 5647 5644 5641 5638 5635 5631 5627 5622 5618 5614 5609 5604 5599 5594 5589 5584 5578 5572 5566 5559 5553 5546 5539 5532 5524 5517 5509 5501 5493 5486 5478 5469 5460 5451 5441 5432 5422 5412 5402 5393
5643 5641 5638 5636 5633 5630 5627 5623 5619 5615 5611 5606 5602 5597 5592 5587 5582 5576 5571 5565 5558 5552 5545 5538 5532 5525 5518 5510 5502 5494 5485 5477 5468 5461 5452 5443 5434 5424 5415 5405 5395 5385 5377
5632 5630 5627 5625 5622 5619 5615 5612 5608 5603 5599 5595 5590 5585 5580 5574 5569 5563 5557 5551 5544 5537 5530 5524 5517 5511 5503 5495 5486 5478 5469 5461 5452 5444 5435 5426 5417 5407 5398 5388 5379 5370 5362
5621 5619 5616 5613 5610 5607 5603 5600 5596 5591 5587 5582 5577 5572 5567 5561 5556 5550 5543 5536 5530 5522 5515 5509 5502 5495 5488 5479 5470 5461 5453 5444 5436 5427 5419 5410 5401 5391 5382 5372 5363 5355 5347
5610 5607 5605 5602 5599 5595 5591 5587 5583 5579 5574 5570 5565 5559 5554 5548 5542 5536 5530 5522 5515 5507 5499 5492 5485 5477 5470 5461 5453 5444 5435 5427 5418 5409 5401 5393 5383 5374 5365 5356 5348 5340 5333